| time (UTC) | temp F | wind direction | speed MPH | gust MPH | rain 1hr in | rain 24hr in | rain mn in | humidity % | barometer mb |
| 20260504034520 | 59 | 208 | 3.0 | 7.0 | 0.00 | 0.00 | 0.00 | 61 | 1013.9 |
| 20260504033020 | 59 | 205 | 4.0 | 8.0 | 0.00 | 0.00 | 0.00 | 61 | 1013.9 |
| 20260504033016 | 59 | 194 | 4.0 | 9.0 | 0.00 | 0.00 | 0.00 | 61 | 1015.4 |
| 20260504031520 | 59 | 194 | 3.0 | 9.0 | 0.00 | 0.00 | 0.00 | 61 | 1014.0 |
| 20260504030019 | 59 | 196 | 3.0 | 7.0 | 0.00 | 0.00 | 0.00 | 61 | 1013.9 |
| 20260504030015 | 59 | 189 | 2.0 | 7.0 | 0.00 | 0.00 | 0.00 | 61 | 1015.4 |
| 20260504024519 | 59 | 176 | 3.0 | 5.0 | 0.00 | 0.00 | 0.00 | 60 | 1014.0 |
| 20260504023021 | 59 | 199 | 2.0 | 5.0 | 0.00 | 0.00 | 0.00 | 59 | 1014.2 |
| 20260504021517 | 60 | 185 | 2.0 | 6.0 | 0.00 | 0.00 | 0.00 | 58 | 1014.1 |
| 20260504020055 | 60 | 202 | 1.0 | 5.0 | 0.00 | 0.00 | 0.00 | 58 | 1015.5 |
| 20260504020017 | 60 | 200 | 2.0 | 5.0 | 0.00 | 0.00 | 0.00 | 58 | 1014.1 |
| 20260504014516 | 60 | 203 | 2.0 | 4.0 | 0.00 | 0.00 | 0.00 | 57 | 1014.0 |
| 20260504013019 | 61 | 209 | 0.0 | 3.0 | 0.00 | 0.00 | 0.00 | 56 | 1014.0 |
| 20260504013015 | 61 | 208 | 0.0 | 6.0 | 0.00 | 0.00 | 0.00 | 56 | 1015.5 |
| 20260504011521 | 62 | 210 | 0.0 | 3.0 | 0.00 | 0.00 | 0.00 | 53 | 1014.0 |
| 20260504010015 | 63 | 211 | 0.0 | 4.0 | 0.00 | 0.00 | 0.00 | 51 | 1014.0 |
| 20260504004514 | 64 | 192 | 2.0 | 6.0 | 0.00 | 0.00 | 0.00 | 50 | 1013.7 |
| 20260504003015 | 65 | 203 | 4.0 | 13.0 | 0.00 | 0.00 | 0.00 | 49 | 1015.3 |
| 20260504003012 | 65 | 203 | 4.0 | 8.0 | 0.00 | 0.00 | 0.00 | 49 | 1013.9 |
| 20260504001512 | 66 | 204 | 4.0 | 8.0 | 0.00 | 0.00 | 0.00 | 48 | 1014.0 |
| 20260504000015 | 67 | 205 | 5.0 | 13.0 | 0.00 | 0.00 | 0.00 | 47 | 1015.4 |
| 20260504000011 | 67 | 198 | 4.0 | 8.0 | 0.00 | 0.00 | 0.00 | 47 | 1014.0 |
| 20260503234508 | 67 | 181 | 6.0 | 13.0 | 0.00 | 0.00 | 0.00 | 46 | 1014.2 |
| 20260503233015 | 68 | 204 | 5.0 | 14.0 | 0.00 | 0.00 | 0.00 | 46 | 1016.1 |
| 20260503233006 | 68 | 211 | 5.0 | 11.0 | 0.00 | 0.00 | 0.00 | 46 | 1014.5 |
| 20260503231505 | 68 | 183 | 6.0 | 12.0 | 0.00 | 0.00 | 0.00 | 45 | 1014.6 |
| 20260503230020 | 68 | 205 | 5.0 | 18.0 | 0.00 | 0.00 | 0.00 | 43 | 1016.2 |
| 20260503230003 | 68 | 210 | 7.0 | 10.0 | 0.00 | 0.00 | 0.00 | 43 | 1014.8 |
| 20260503224503 | 68 | 196 | 7.0 | 16.0 | 0.00 | 0.00 | 0.00 | 44 | 1014.9 |
| 20260503223059 | 68 | 224 | 6.0 | 17.0 | 0.00 | 0.00 | 0.00 | 44 | 1015.0 |
| 20260503223015 | 68 | 208 | 5.0 | 18.0 | 0.00 | 0.00 | 0.00 | 44 | 1016.5 |
| 20260503221558 | 68 | 223 | 6.0 | 12.0 | 0.00 | 0.00 | 0.00 | 44 | 1015.3 |
| 20260503220109 | 68 | 238 | 6.0 | 16.0 | 0.00 | 0.00 | 0.00 | 45 | 1015.4 |
| 20260503220056 | 68 | 217 | 6.0 | 17.0 | 0.00 | 0.00 | 0.00 | 44 | 1016.9 |
| 20260503214552 | 68 | 285 | 4.0 | 12.0 | 0.00 | 0.00 | 0.00 | 46 | 1015.8 |
| 20260503213053 | 68 | 269 | 6.0 | 13.0 | 0.00 | 0.00 | 0.00 | 44 | 1016.0 |
| 20260503213015 | 68 | 219 | 6.0 | 17.0 | 0.00 | 0.00 | 0.00 | 43 | 1017.5 |
| 20260503211547 | 68 | 181 | 6.0 | 17.0 | 0.00 | 0.00 | 0.00 | 46 | 1016.3 |
| 20260503210045 | 68 | 223 | 9.0 | 13.0 | 0.00 | 0.00 | 0.00 | 44 | 1016.6 |
| 20260503210015 | 68 | 213 | 6.0 | 17.0 | 0.00 | 0.00 | 0.00 | 44 | 1018.0 |
| 20260503204542 | 68 | 262 | 9.0 | 17.0 | 0.00 | 0.00 | 0.00 | 43 | 1016.9 |
| 20260503203044 | 68 | 235 | 8.0 | 16.0 | 0.00 | 0.00 | 0.00 | 45 | 1017.0 |
| 20260503203015 | 68 | 226 | 6.0 | 17.0 | 0.00 | 0.00 | 0.00 | 46 | 1018.4 |
| 20260503201538 | 67 | 210 | 5.0 | 12.0 | 0.00 | 0.00 | 0.00 | 46 | 1017.5 |
| 20260503200033 | 67 | 250 | 8.0 | 16.0 | 0.00 | 0.00 | 0.00 | 45 | 1017.9 |
| 20260503200015 | 67 | 227 | 6.0 | 17.0 | 0.00 | 0.00 | 0.00 | 45 | 1019.2 |
| 20260503194532 | 67 | 225 | 7.0 | 14.0 | 0.00 | 0.00 | 0.00 | 46 | 1018.2 |
| 20260503193040 | 66 | 224 | 6.0 | 16.0 | 0.00 | 0.00 | 0.00 | 47 | 1019.8 |
| 20260503193026 | 66 | 261 | 7.0 | 14.0 | 0.00 | 0.00 | 0.00 | 47 | 1018.5 |
| 20260503191534 | 66 | 221 | 6.0 | 13.0 | 0.00 | 0.00 | 0.00 | 48 | 1018.8 |
| 20260503190021 | 66 | 202 | 6.0 | 17.0 | 0.00 | 0.00 | 0.00 | 47 | 1019.0 |
| 20260503190017 | 66 | 239 | 4.0 | 14.0 | 0.00 | 0.00 | 0.00 | 48 | 1020.4 |
| 20260503184518 | 65 | 207 | 7.0 | 13.0 | 0.00 | 0.00 | 0.00 | 48 | 1019.3 |
| 20260503183017 | 64 | 225 | 5.0 | 14.0 | 0.00 | 0.00 | 0.00 | 49 | 1020.7 |
| 20260503181514 | 64 | 204 | 6.0 | 11.0 | 0.00 | 0.00 | 0.00 | 50 | 1019.7 |
| 20260503180037 | 64 | 211 | 5.0 | 15.0 | 0.00 | 0.00 | 0.00 | 50 | 1021.0 |
| 20260503180011 | 64 | 206 | 6.0 | 12.0 | 0.00 | 0.00 | 0.00 | 50 | 1019.7 |
| 20260503174507 | 63 | 221 | 2.0 | 9.0 | 0.00 | 0.00 | 0.00 | 48 | 1019.9 |
| 20260503173016 | 62 | 206 | 5.0 | 15.0 | 0.00 | 0.00 | 0.00 | 49 | 1021.3 |
| 20260503173005 | 62 | 194 | 4.0 | 7.0 | 0.00 | 0.00 | 0.00 | 49 | 1020.1 |
| 20260503171502 | 62 | 214 | 6.0 | 14.0 | 0.00 | 0.00 | 0.00 | 52 | 1020.5 |
| 20260503170113 | 62 | 212 | 6.0 | 10.0 | 0.00 | 0.00 | 0.00 | 55 | 1020.8 |
| 20260503160107 | 59 | 141 | 5.0 | 9.0 | 0.00 | 0.00 | 0.00 | 56 | 1021.4 |
| 20260503081526 | 38 | 27 | 0.0 | 0.0 | 0.00 | 0.00 | 0.00 | 93 | 1020.3 |
| 20260503071519 | 38 | 27 | 0.0 | 0.0 | 0.00 | 0.00 | 0.00 | 93 | 1020.1 |
| 20260503054510 | 40 | 27 | 0.0 | 0.0 | 0.00 | 0.00 | 0.00 | 91 | 1020.2 |
| 20260503053020 | 40 | 0.0 | 0.0 | 0.00 | 0.00 | 0.00 | 91 | 1021.5 | |
| 20260503053009 | 40 | 27 | 0.0 | 0.0 | 0.00 | 0.00 | 0.00 | 91 | 1020.2 |
| 20260503051510 | 40 | 27 | 0.0 | 0.0 | 0.00 | 0.00 | 0.00 | 91 | 1020.2 |
| 20260503050017 | 41 | 0.0 | 0.0 | 0.00 | 0.00 | 0.00 | 90 | 1021.5 | |
| 20260503050005 | 41 | 27 | 0.0 | 0.0 | 0.00 | 0.00 | 0.00 | 90 | 1020.2 |
| 20260503044504 | 41 | 27 | 0.0 | 0.0 | 0.00 | 0.00 | 0.00 | 90 | 1020.2 |
| 20260503043016 | 41 | 27 | 0.0 | 0.0 | 0.00 | 0.00 | 0.00 | 89 | 1020.1 |
| 20260503041504 | 42 | 27 | 0.0 | 0.0 | 0.00 | 0.00 | 0.00 | 88 | 1020.0 |
| 20260503040015 | 42 | 0.0 | 0.0 | 0.00 | 0.00 | 0.00 | 88 | 1021.4 | |
| 20260503040003 | 42 | 27 | 0.0 | 0.0 | 0.00 | 0.00 | 0.00 | 88 | 1020.0 |